Location: Gravenhurst
(44.9196°N, 79.3742°W)
Time: 18:18:42
(UTC-05:00)

N. Korean satellite - Pass Details

Date: 28 October 2019
Orbit: 456 x 506 km, 97.2° (Epoch: 16 November)

Event Time Altitude Azimuth Distance (km) Brightness Sun altitude
Rises 18:58:57 0° 192° (SSW) 2,471 10.5 -8.9°
Reaches altitude 10° 19:01:11 10° 205° (SSW) 1,608 9.7 -9.3°
Maximum altitude 19:04:09 27° 264° (W) 940 9.0 -9.8°
Drops below altitude 10° 19:07:11 10° 324° (NW) 1,641 9.6 -10.4°
Sets 19:09:30 0° 337° (NNW) 2,533 10.4 -10.8°
